Location: Watson Lake
(60.1170°N, 128.8000°W)
Time: 13:52:24
(UTC-07:00)

Daily predictions for brighter satellites

Satellite Brightness Start Highest point End
(mag) Time Altitude Azimuth Time Altitude Azimuth Time Altitude Azimuth
USA 267 3.5 20:36:37 10° ESE 20:43:09 68° S 20:49:42 10° W
Cosmos 1844 3.9 20:39:57 10° SSW 20:45:36 57° ESE 20:51:18 10° NE
Terra 3.8 20:45:07 10° ENE 20:47:49 15° NE 20:50:31 10° N
SAR-Lupe-4 3.5 20:44:21 10° SSE 20:47:57 82° ENE 20:51:34 10° NNW
Meteor 1-29 4.4 20:46:15 10° NE 20:48:49 19° E 20:51:23 10° SE
YAOGAN 6 3.6 20:46:20 10° ESE 20:49:38 30° ENE 20:52:58 10° N
ERS-1 Rocket 3.5 20:45:04 10° SE 20:49:49 43° ENE 20:54:36 10° N
Cosmos 1743 Rocket 4.0 20:48:04 10° N 20:52:20 44° ENE 20:56:36 10° SE
SJ-11-01 4.4 20:47:55 10° SE 20:52:35 60° ENE 20:57:15 10° NNW
Cosmos 2297 Rocket 3.8 20:47:45 10° WNW 20:52:35 28° N 20:57:26 10° NE
SeaSat 1 4.3 20:49:01 10° S 20:53:23 31° WSW 20:57:49 10° NW
Cosmos 1500 Rocket 4.2 20:49:58 10° N 20:54:01 36° ENE 20:58:02 10° SE
COSMOS 2487 3.2 20:51:21 10° NW 20:54:54 56° WSW 20:58:24 10° SSE
ASTRO F (AKARI) 4.4 20:51:57 10° NNE 20:55:06 77° WNW 20:58:16 10° SSW
Cosmos 1605 Rocket 4.1 20:48:57 10° S 20:55:10 64° E 21:01:31 10° NNE
Cosmos 1356 Rocket 4.0 20:51:54 10° N 20:55:51 38° ENE 20:59:42 10° SE
CZ-2D R/B 3.8 20:55:02 10° S 20:58:54 65° WSW 21:02:50 10° NNW
Cosmos 1937 Rocket 3.5 20:53:52 10° SSW 20:59:08 73° ESE 21:04:28 10° NE
Meteor 1-21 Rocket 4.5 20:57:48 10° NNW 21:03:37 80° WSW 21:09:29 10° S
Cosmos 1805 3.4 20:59:49 10° S 21:03:38 54° E 21:07:29 10° NNE
H-2A R/B 3.7 21:01:04 10° E 21:03:49 18° NE 21:06:35 10° N
COSMO-SKYMED 1 4.2 21:00:59 10° N 21:05:05 41° WNW 21:09:09 10° SW
Cosmos 1626 3.7 21:03:31 10° N 21:06:23 20° ENE 21:08:57 11° ESE
SAR-Lupe-1 4.2 21:03:14 10° SSE 21:06:50 77° WSW 21:10:27 10° NNW
Cosmos 2251 Rocket 3.6 21:03:25 10° NNW 21:08:46 75° NE 21:14:07 10° SE
Cosmos 1437 Rocket 3.6 21:08:42 10° SSW 21:12:43 58° WNW 21:16:49 10° NNE
Meteor 1-4 Rocket 2.7 21:09:32 10° S 21:12:53 47° E 21:16:17 10° NNE
Cosmos 1408 Rocket 3.8 21:09:13 10° NNW 21:13:42 80° W 21:18:12 10° S
ALOS 4.2 21:10:43 10° SSW 21:14:57 33° W 21:19:13 10° NNW
Cosmos 1340 Rocket 2.8 21:13:44 10° NNW 21:17:50 89° E 21:21:52 10° SSE
Cosmos 1844 Rocket 2.8 21:13:02 10° SW 21:18:42 85° NW 21:24:23 10° NE
Cosmos 1802 Rocket 4.4 21:13:08 10° SSE 21:18:47 40° E 21:24:31 10° NNE
Cosmos 2227 Rocket 3.8 21:14:07 10° NW 21:19:01 28° N 21:23:54 10° ENE
Cosmos 1470 3.3 21:16:11 10° SSE 21:19:51 36° E 21:23:31 10° NNE
Cosmos 1833 Rocket 3.7 21:15:24 10° NW 21:20:45 46° WSW 21:26:05 10° S
Cosmos 1544 3.0 21:17:57 10° S 21:21:37 77° ESE 21:25:21 10° NNE
SPOT 1/Viking Rocket 4.3 21:17:42 12° ESE 21:22:05 37° NE 21:26:52 10° N
CZ-4B DEB 3.1 21:19:07 10° S 21:22:13 65° WSW 21:25:20 10° NNW
Cosmos 2298 Rocket 4.3 21:17:03 10° SW 21:22:23 76° NW 21:27:46 10° NNE
Coronas F rocket 2.4 21:21:38 10° NNE 21:23:21 19° ENE 21:23:53 18° E
Cosmos 2058 3.4 21:22:49 10° N 21:26:50 42° ENE 21:30:10 14° SE
Cosmos 1733 3.7 21:24:29 10° SSE 21:28:08 40° E 21:31:49 10° NNE
Cosmos 389 Rocket 4.1 21:30:18 16° ESE 21:30:55 17° E 21:33:16 10° NE
MetOp-B 4.3 21:26:18 10° SE 21:31:30 59° ENE 21:36:47 10° NNW
Cosmos 2061 Rocket 4.2 21:26:22 10° SSE 21:32:32 52° E 21:38:45 10° NNE
Cosmos 2151 3.1 21:28:31 10° N 21:32:46 55° ENE 21:36:29 13° SSE
NOAA 11 4.3 21:30:51 11° SE 21:36:07 61° ENE 21:41:33 10° NNW
Cosmos 2278 Rocket 2.2 21:30:38 10° SSW 21:36:18 72° SE 21:41:59 10° NE
Cosmos 1842 Rocket 4.3 21:32:35 10° SSE 21:36:30 32° E 21:40:23 10° NNE
Cosmos 372 Rocket 4.3 21:31:57 10° S 21:36:48 43° ESE 21:41:41 10° NE
Helios 1B rocket 2.4 21:36:19 10° NNE 21:40:28 64° ESE 21:44:35 10° S
Cosmos 2098 Rocket 4.5 21:33:09 10° S 21:40:43 85° E 21:48:10 10° NNE
NOSS 2-1 (D) 4.3 21:36:41 10° W 21:41:10 63° N 21:47:03 10° ENE
NOSS 2-1 (C) 4.3 21:37:02 10° W 21:41:30 63° N 21:47:23 10° ENE
Cosmos 2084 Rocket 3.2 21:38:34 10° WSW 21:42:30 82° NNW 21:46:20 10° ENE
SL-14 R/B 3.1 21:41:35 10° NNW 21:45:28 84° ENE 21:49:02 12° SSE
Cosmos 2263 Rocket 3.7 21:41:13 10° W 21:46:23 36° NNW 21:51:33 10° NE
ATLAS 5 CENTAUR R/B 2.9 21:42:48 10° S 21:46:41 24° ESE 21:50:52 10° ENE
USA 186 4.0 21:46:04 10° SW 21:47:32 16° W 21:49:02 10° NW
USA 215 4.3 21:42:58 10° E 21:47:44 21° SE 21:52:28 10° S
Cosmos 1328 3.8 21:44:29 10° NNW 21:48:29 84° W 21:52:28 10° S
Cosmos 1459 Rocket 4.0 21:42:22 10° S 21:48:31 65° E 21:54:37 10° NNE
Cosmos 1758 3.6 21:45:21 10° SSW 21:49:20 72° WNW 21:53:23 10° NNE
Cosmos 1867 4.0 21:46:50 10° SSW 21:51:50 38° SE 21:56:51 10° ENE
YAOGAN 11 4.2 21:47:54 13° SSE 21:51:55 79° ENE 21:56:29 10° NNW
Cosmos 2297 3.8 21:46:51 10° SSW 21:52:25 54° ESE 21:58:01 10° NE
Cosmos 494 Rocket 4.4 21:47:25 10° NW 21:52:29 62° WSW 21:57:26 11° SSE
Cosmos 2173 Rocket 4.0 21:48:18 10° S 21:54:28 70° E 22:00:46 10° NNE
Meteor 1-11 4.2 21:50:10 10° NNW 21:55:48 90° ENE 22:01:16 11° SSE
Cosmos 2082 Rocket 4.1 21:51:49 10° NW 21:56:34 28° WSW 22:01:16 10° SSW
Cosmos 1953 2.8 21:53:09 10° SSW 21:57:12 66° WNW 22:01:16 10° N
Cosmos 2219 4.0 21:52:54 10° NW 21:58:19 42° NNE 22:02:16 17° E
Cosmos 1184 Rocket 3.6 21:55:09 10° NNW 21:58:30 53° W 22:01:44 10° S
Lacrosse 4 Rocket 1.9 21:55:21 10° WSW 21:59:22 60° NW 22:03:27 10° NE
Lacrosse 5 2.3 21:55:50 10° SW 22:00:34 41° SSE 22:03:51 18° E
SL-24 R/B - RUBIN 2 4.5 21:54:41 10° WNW 22:01:14 77° NNE 22:05:23 21° ESE
Cosmos 1939 Rocket 4.0 21:58:58 10° S 22:02:58 45° W 22:07:01 10° NNW
NOSS 2-1 (E) 4.4 21:58:21 10° W 22:02:59 62° N 22:09:09 10° ENE
MOS 1-B Rocket 4.4 21:58:35 16° SE 22:04:43 66° ENE 22:11:10 10° NNW
Cosmos 1271 Rocket 2.7 22:00:46 10° S 22:04:47 79° ESE 22:08:51 10° NNE
CZ-3B DEB 2.5 21:57:50 10° SW 22:04:48 38° S 22:06:38 26° ESE
GP-B 4.0 22:01:12 10° SSW 22:05:32 50° W 22:09:53 10° N
Sich 1 3.6 22:03:00 10° N 22:07:13 41° ENE 22:09:11 26° ESE
SPOT 5 3.1 22:03:31 16° SSE 22:07:53 84° ENE 22:13:11 10° NNW
Cosmos 2344 3.8 22:00:17 10° SW 22:08:10 75° SE 22:18:06 10° ENE
CARTOSAT-1 4.4 22:06:18 24° ESE 22:08:10 34° ENE 22:12:07 10° N
Cosmos 1666 Rocket 4.0 22:04:02 10° N 22:08:12 42° ENE 22:10:05 27° ESE
Landsat 7 4.2 22:06:46 24° SE 22:09:21 48° ENE 22:13:57 10° N
Lacrosse 5 rocket 3.8 22:09:51 10° WSW 22:11:10 11° SW 22:12:27 10° SSW
Envisat 4.2 22:06:22 10° SSW 22:11:10 41° W 22:16:01 10° NNW
Resurs 01 Rocket 4.4 22:08:55 10° SW 22:11:49 17° W 22:14:44 10° NW
Cosmos 1633 Rocket 3.7 22:07:45 10° N 22:11:58 41° ENE 22:13:48 27° ESE
Geosat 3.9 22:09:27 10° NE 22:14:31 70° SE 22:19:32 10° SSW
Meteor 1-16 Rocket 4.4 22:09:39 10° S 22:15:27 60° E 22:21:18 10° NNE
H-2A R/B 2.2 22:14:06 23° SE 22:17:23 64° ENE 22:22:36 10° NNW
Cosmos 1703 3.2 22:13:25 10° NNW 22:17:24 79° ENE 22:19:24 28° SSE
MetOp-A 4.3 22:12:46 14° SSE 22:17:28 75° WSW 22:22:52 10° NNW
Meteor 2-17 Rocket 4.4 22:11:42 10° S 22:17:49 72° E 22:23:58 10° NNE
ARGOS 3.1 22:14:33 18° SSE 22:18:35 89° ENE 22:23:59 10° NNW
Cosmos-2242 3.2 22:14:22 10° SSW 22:18:36 71° WNW 22:22:55 10° NNE
SL-19 R/B 4.5 22:18:29 28° SSE 22:20:36 78° ENE 22:25:17 10° NNW
Cosmos 1125 Rocket 3.5 22:16:24 10° SSW 22:21:39 87° NW 22:26:56 10° NNE
Meteor 1-29 3.5 22:18:35 10° NNE 22:22:02 61° WNW 22:25:28 10° SSW
YAOGAN 6 3.7 22:19:46 11° S 22:23:07 43° W 22:26:44 10° NNW
Terra 2.2 22:22:31 29° ESE 22:24:37 48° ENE 22:29:13 10° N
Cosmos 1190 Rocket 4.4 22:20:34 10° NNW 22:25:48 55° NE 22:28:26 28° ESE
Cosmos 2016 Rocket 3.9 22:20:03 10° S 22:26:15 81° E 22:32:26 10° NNE
USA 267 3.8 22:22:50 22° SSE 22:26:50 46° SSW 22:33:07 10° WNW
Meteor 2-1 Rocket 4.5 22:23:26 21° SSE 22:27:01 48° E 22:32:24 10° NNE
ERS-1 Rocket 3.9 22:23:46 10° S 22:28:38 47° W 22:33:32 10° NNW
Cosmos 1725 Rocket 3.9 22:28:21 10° S 22:34:31 70° E 22:40:42 10° NNE
PSLV R/B 3.6 22:35:33 41° ENE 22:35:33 41° ENE 22:38:15 10° N
Cosmos 1805 Rocket 3.5 22:31:07 10° NNW 22:35:34 88° E 22:37:40 31° SSE
Cosmos 2221 2.8 22:34:52 36° SE 22:36:03 46° E 22:40:17 10° NNE
Cosmos 2297 Rocket 3.4 22:32:58 10° NW 22:38:09 35° NNE 22:42:06 16° E
H-2A R/B 1.9 22:37:50 39° SE 22:39:16 74° ENE 22:43:23 10° NNW
NOSS 3-3 (A) 4.5 22:34:32 10° WNW 22:41:26 73° NNE 22:46:58 20° E
NOSS 3-3 (C) 4.5 22:34:38 10° WNW 22:41:31 73° NNE 22:47:04 20° E
Tsikada Rocket 4.3 22:35:34 10° NNW 22:41:41 64° W 22:47:13 13° S
Cosmos 1626 2.3 22:38:26 10° NNW 22:42:12 70° W 22:43:38 35° S
IGS 5A 3.7 22:41:15 41° ESE 22:42:20 54° ENE 22:46:23 10° N
Cosmos 2100 Rocket 4.5 22:36:25 10° SSW 22:42:45 65° WNW 22:49:07 10° NNE
CZ-4 DEB 2.4 22:43:04 70° NNW 22:43:04 70° NNW 22:45:26 10° NNW
SL-08 RB Rocket 3.9 22:43:19 27° S 22:45:54 71° WSW 22:50:36 10° NNW
Fregat R/B Cluster 11 3.8 22:43:06 10° SW 22:46:37 63° SE 22:50:40 10° ENE
Cosmos 1470 Rocket 4.0 22:42:42 10° N 22:47:02 46° ENE 22:48:04 38° ESE
Cosmos 1833 4.2 22:43:25 10° NW 22:49:03 80° SW 22:51:37 34° SSE
Coronas F rocket 3.3 22:51:47 10° NW 22:53:25 20° W 22:53:25 20° W
Cosmos 1470 4.3 22:52:17 10° SW 22:56:00 36° WNW 22:59:42 10° N
Cosmos 1908 4.0 22:58:07 36° ENE 22:58:07 36° ENE 23:01:14 10° NNE
Cosmos 2369 Rocket 2.7 22:58:18 36° ESE 22:58:31 36° ESE 23:03:36 10° NE
Meteor 2-3 Rocket 4.4 22:55:05 10° N 23:00:24 41° ENE 23:02:14 32° ESE
SPOT 1/Viking Rocket 4.0 22:58:20 25° S 23:01:20 60° WSW 23:06:32 10° NNW
Cosmos 1400 Rocket 4.4 22:59:34 10° N 23:02:48 23° NE 23:03:12 22° ENE
Cosmos 1844 Rocket 4.2 22:58:06 10° W 23:03:18 36° NNW 23:08:30 10° NE
Cosmos 2058 4.4 22:59:57 10° NNW 23:03:44 34° W 23:06:25 17° SSW
Cosmos 2227 Rocket 3.0 22:58:57 10° NW 23:04:25 44° NNE 23:07:15 26° E
Nimbus 7 Rocket 4.3 22:59:14 10° NNE 23:05:06 66° ESE 23:08:13 29° S
Cosmos 389 Rocket 2.7 23:04:17 40° SW 23:05:23 68° WNW 23:08:56 10° NNE
Cosmos 1726 4.2 23:09:45 17° NE 23:09:45 17° NE 23:11:09 10° NE
Cosmos 407 Rocket 3.5 23:04:09 10° NNW 23:09:31 83° NE 23:11:11 45° SE
Elektron 1 4.0 23:06:50 10° WNW 23:09:31 67° SW 23:09:31 67° SW
Cosmos 1842 Rocket 4.4 23:09:58 10° SW 23:14:16 49° WNW 23:18:33 10° N
deb Chang Zheng 4 3.9 23:15:15 10° NNE 23:19:24 48° E 23:19:24 48° E
Cosmos 2278 Rocket 3.4 23:15:21 10° WSW 23:20:47 44° NNW 23:26:15 10° NE
Cosmos 1092 Rocket 4.4 23:15:16 10° N 23:21:18 50° ENE 23:23:15 38° ESE
Cosmos 2084 Rocket 3.7 23:18:26 10° W 23:22:14 56° N 23:23:12 42° NE
ATLAS 3B R/B 4.4 23:27:00 16° E 23:27:00 16° E 23:29:29 10° ENE
CZ-2C R/B 4.1 23:24:39 26° E 23:25:50 29° NE 23:29:58 10° N
Cosmos 1300 4.4 23:27:40 23° NE 23:27:40 23° NE 23:29:39 10° NNE
Cosmos 1943 Rocket 3.0 23:30:51 32° E 23:30:51 32° E 23:34:57 10° NE
Cosmos 1515 Rocket 4.5 23:31:06 34° ENE 23:31:06 34° ENE 23:34:23 10° NNE
ATLAS 5 CENTAUR R/B 1.8 23:25:39 10° SW 23:30:36 72° SE 23:36:09 10° ENE
Cosmos 2263 Rocket 4.1 23:27:01 10° NW 23:31:48 27° N 23:36:34 10° ENE
USA 215 3.4 23:25:45 10° ENE 23:32:01 45° SSE 23:38:14 10° SW
NOSS 2-1 (D) 4.3 23:27:18 10° WNW 23:32:19 74° NNE 23:35:19 32° E
NOSS 2-1 (C) 4.3 23:27:39 10° WNW 23:32:39 74° NNE 23:35:41 32° E
CZ-4 R/B 4.2 23:29:40 10° NNE 23:33:49 44° E 23:33:49 44° E
DMSP B5D2-2 4.0 23:29:25 10° NNE 23:34:38 62° ESE 23:35:23 55° SE
Cosmos 1867 3.6 23:29:38 10° WSW 23:35:08 83° NNW 23:40:40 10° ENE
Cosmos 2297 4.5 23:31:04 10° WSW 23:36:43 54° NW 23:42:23 10° NE
Lacrosse 4 Rocket 3.3 23:35:09 10° WNW 23:38:45 29° N 23:42:25 10° NE
Cosmos 1328 Rocket 3.9 23:39:23 50° ENE 23:39:23 50° ENE 23:43:09 10° NNE
Cosmos 1151 Rocket 4.1 23:41:00 32° ENE 23:41:00 32° ENE 23:44:09 10° NNE
Cosmos 2233 Rocket 4.1 23:36:57 23° SSW 23:40:56 74° WNW 23:47:08 10° NNE
Nadezhda 4 Rocket 3.9 23:34:57 10° NNW 23:41:07 78° ENE 23:42:52 49° SSE
Cosmos 2219 3.2 23:37:15 10° NW 23:42:56 75° SW 23:44:12 54° SSE
Lacrosse 5 1.8 23:38:08 10° WSW 23:43:05 62° S 23:43:05 62° S
CARTOSAT-1 4.2 23:43:26 43° SW 23:44:12 48° W 23:48:25 10° NNW
Sich 1 4.2 23:40:50 10° NNW 23:44:56 38° W 23:46:11 31° SW
Cosmos 1140 Rocket 3.5 23:40:07 10° NNW 23:45:25 78° NE 23:46:22 60° SE
Cosmos 1356 4.3 23:43:53 10° NNW 23:46:58 46° W 23:46:58 46° W
SL-19 R/B 4.4 23:41:13 10° NNE 23:47:24 71° ESE 23:49:23 45° S
Cosmos 2228 Rocket 3.2 23:48:23 64° E 23:48:23 64° E 23:52:48 10° NNE
Cosmos 1633 Rocket 4.1 23:45:40 10° NNW 23:49:48 39° W 23:50:53 33° SW
Cosmos 676 Rocket 4.0 23:46:25 10° NW 23:51:47 74° WSW 23:52:42 60° S
